• Join FlightAware (Why Join?)
  • Login
  • US Flag 
04:52AM EDT


 

Airport Tracker/Info


-or-


 

Live Flight TrackerFlight Track Log ✈ TYR847 ✈ 13-May-2013 ✈ LOWW / VIE - LATI / TIA

Flight Track Log - Related Links

Times and Time Zones

All times are in EDT time to prevent confusion due to time zone crossing. See the TYR847 flight status page for this flight to view local times or setup timezone preferences in your user account.

Time Position Orientation Groundspeed Altitude Reporting Facility
EDT Latitude Longitude Course Direction KTS MPH feet Rate Location/Type
07:13AM 47.3500 16.9690 160° South  Level Estimated
07:14AM 47.2548 17.0181 161° South  Level Estimated
07:15AM 47.1597 17.0670 161° South  Level Estimated
07:16AM 47.0645 17.1157 161° South  Level Estimated
07:17AM 46.9693 17.1643 161° South  Level Estimated
07:18AM 46.8741 17.2127 161° South  Level Estimated
07:19AM 46.7789 17.2609 161° South  Level Estimated
07:20AM 46.6836 17.3090 161° South  Level Estimated
07:21AM 46.5883 17.3569 161° South  Level Estimated
07:22AM 46.4930 17.4046 161° South  Level Estimated
07:23AM 46.3977 17.4522 161° South  Level Estimated
07:24AM 46.3024 17.4995 161° South  Level Estimated
07:25AM 46.2070 17.5468 161° South  Level Estimated
07:26AM 46.1116 17.5938 161° South  Level Estimated
07:27AM 46.0163 17.6407 161° South  Level Estimated
07:28AM 45.9208 17.6875 161° South  Level Estimated
07:29AM 45.8254 17.7340 161° South  Level Estimated
07:30AM 45.7300 17.7804 161° South  Level Estimated
07:31AM 45.6345 17.8267 161° South  Level Estimated
07:32AM 45.5390 17.8728 161° South  Level Estimated
07:33AM 45.4435 17.9187 161° South  Level Estimated
07:34AM 45.3480 17.9645 161° South  Level Estimated
07:35AM 45.2524 18.0102 161° South  Level Estimated
07:36AM 45.1569 18.0556 161° South  Level Estimated
07:37AM 45.0613 18.1010 161° South  Level Estimated
07:38AM 44.9657 18.1461 162° South  Level Estimated
07:39AM 44.8701 18.1912 162° South  Level Estimated
07:40AM 44.7744 18.2360 162° South  Level Estimated
07:41AM 44.6788 18.2808 162° South  Level Estimated
07:42AM 44.5831 18.3253 162° South  Level Estimated
07:43AM 44.4874 18.3698 162° South  Level Estimated
07:44AM 44.3917 18.4141 162° South  Level Estimated
07:45AM 44.2960 18.4582 162° South  Level Estimated
07:46AM 44.2003 18.5022 162° South  Level Estimated
07:47AM 44.1045 18.5461 162° South  Level Estimated
07:48AM 44.0088 18.5898 162° South  Level Estimated
07:49AM 43.9130 18.6334 162° South  Level Estimated
07:50AM 43.8172 18.6768 162° South  Level Estimated
07:51AM 43.7213 18.7201 162° South  Level Estimated
07:52AM 43.6255 18.7632 162° South  Level Estimated
07:53AM 43.5297 18.8062 162° South  Level Estimated
07:54AM 43.4338 18.8491 162° South  Level Estimated
07:55AM 43.3379 18.8919 162° South  Level Estimated
07:56AM 43.2420 18.9345 162° South  Level Estimated
07:57AM 43.1461 18.9770 162° South  Level Estimated
07:58AM 43.0502 19.0193 162° South  Level Estimated
07:59AM 42.9542 19.0615 162° South  Level Estimated
08:00AM 42.8582 19.1036 162° South  Level Estimated
08:01AM 42.7623 19.1456 162° South  Level Estimated
08:02AM 42.6663 19.1874 162° South  Level Estimated
08:03AM 42.5703 19.2291 162° South  Level Estimated
08:04AM 42.4742 19.2706 162° South  Level Estimated
08:05AM 42.3782 19.3121 162° South  Level Estimated
08:06AM 42.2822 19.3534 162° South  Level Estimated
08:07AM 42.1861 19.3946 162° South  Level Estimated
08:08AM 42.0900 19.4356 162° South  Level Estimated
08:09AM 41.9939 19.4766 162° South  Level Estimated
08:10AM 41.8978 19.5174 162° South  Level Estimated
08:11AM 41.8017 19.5581 162° South  Level Estimated
08:12AM 41.7055 19.5986 163° South  Level Estimated
08:13AM 41.6094 19.6391 163° South  Level Estimated
08:14AM 41.5132 19.6794 163° South  Level Estimated
08:15AM 41.4170 19.7196 163° South  Level Estimated
08:16AM 41.4147 19.7206 163° South  Level Estimated
08:17AM 41.4147 19.7206 21° North  Level Estimated
08:18AM 41.4147 19.7206 21° North  Level Estimated
08:19AM 41.4147 19.7206 21° North  Level Estimated
08:20AM 41.4147 19.7206 21° North  Level Estimated
08:21AM 41.4147 19.7206 21° North  Level Estimated
08:22AM 41.4147 19.7206 21° North  Level Estimated
08:23AM 41.4147 19.7206 21° North  Level Estimated